| time (UTC) | temp F | wind direction | speed MPH | gust MPH | rain 1hr in | rain 24hr in | rain mn in | humidity % | barometer mb |
| 20260902051113 | 69 | 0.0 | 1.0 | 0.00 | 0.00 | 0.00 | 11 | 1010.4 | |
| 20260902045050 | 69 | 0.0 | 0.0 | 0.00 | 0.00 | 0.00 | 11 | 1010.3 | |
| 20260902044035 | 69 | 0.0 | 1.0 | 0.00 | 0.00 | 0.00 | 11 | 1010.4 | |
| 20260902043023 | 69 | 0.0 | 0.0 | 0.00 | 0.00 | 0.00 | 11 | 1010.5 | |
| 20260902042012 | 69 | 0.0 | 1.0 | 0.00 | 0.00 | 0.00 | 11 | 1010.4 | |
| 20260902041000 | 69 | 0.0 | 1.0 | 0.00 | 0.00 | 0.00 | 11 | 1010.4 | |
| 20260902035848 | 69 | 0.0 | 1.0 | 0.00 | 0.00 | 0.00 | 11 | 1010.3 | |
| 20260902034837 | 71 | 1.0 | 3.0 | 0.00 | 0.00 | 0.00 | 11 | 1010.1 | |
| 20260902033824 | 69 | 0.0 | 1.0 | 0.00 | 0.00 | 0.00 | 11 | 1010.2 | |
| 20260902032813 | 69 | 0.0 | 1.0 | 0.00 | 0.00 | 0.00 | 11 | 1010.3 | |
| 20260902031802 | 69 | 0.0 | 1.0 | 0.00 | 0.00 | 0.00 | 11 | 1010.4 | |
| 20260902030750 | 69 | 0.0 | 1.0 | 0.00 | 0.00 | 0.00 | 11 | 1010.5 | |
| 20260902025734 | 69 | 0.0 | 1.0 | 0.00 | 0.00 | 0.00 | 11 | 1010.4 | |
| 20260902024723 | 69 | 0.0 | 1.0 | 0.00 | 0.00 | 0.00 | 11 | 1010.5 | |
| 20260902023711 | 69 | 0.0 | 0.0 | 0.00 | 0.00 | 0.00 | 11 | 1010.4 | |
| 20260902022657 | 71 | 0.0 | 1.0 | 0.00 | 0.00 | 0.00 | 11 | 1010.3 | |
| 20260902021645 | 71 | 0.0 | 2.0 | 0.00 | 0.00 | 0.00 | 11 | 1010.4 | |
| 20260902020631 | 71 | 0.0 | 1.0 | 0.00 | 0.00 | 0.00 | 11 | 1010.4 | |
| 20260902015519 | 71 | 0.0 | 1.0 | 0.00 | 0.00 | 0.00 | 11 | 1010.5 | |
| 20260902014508 | 71 | 0.0 | 2.0 | 0.00 | 0.00 | 0.00 | 11 | 1010.3 | |
| 20260902013457 | 71 | 0.0 | 1.0 | 0.00 | 0.00 | 0.00 | 11 | 1010.2 | |
| 20260902012444 | 71 | 0.0 | 1.0 | 0.00 | 0.00 | 0.00 | 11 | 1010.3 | |
| 20260902011433 | 71 | 1.0 | 1.0 | 0.00 | 0.00 | 0.00 | 11 | 1010.4 | |
| 20260902010422 | 71 | 0.0 | 3.0 | 0.00 | 0.00 | 0.00 | 11 | 1010.4 | |
| 20260902005410 | 71 | 0.0 | 1.0 | 0.00 | 0.00 | 0.00 | 11 | 1010.5 | |
| 20260902004358 | 71 | 0.0 | 1.0 | 0.00 | 0.00 | 0.00 | 11 | 1010.5 | |
| 20260902003347 | 71 | 0.0 | 1.0 | 0.00 | 0.00 | 0.00 | 11 | 1010.5 | |
| 20260902002336 | 71 | 0.0 | 1.0 | 0.00 | 0.00 | 0.00 | 11 | 1010.4 | |
| 20260902001324 | 71 | 0.0 | 1.0 | 0.00 | 0.00 | 0.00 | 11 | 1010.4 | |
| 20260902000312 | 71 | 0.0 | 0.0 | 0.00 | 0.00 | 0.00 | 11 | 1010.4 | |
| 20260901235154 | 71 | 0.0 | 0.0 | 0.00 | 0.00 | 0.00 | 11 | 1010.5 | |
| 20260901234141 | 71 | 0.0 | 0.0 | 0.00 | 0.00 | 0.00 | 11 | 1010.5 | |
| 20260901233128 | 71 | 0.0 | 1.0 | 0.00 | 0.00 | 0.00 | 11 | 1010.5 | |
| 20260901232117 | 71 | 0.0 | 0.0 | 0.00 | 0.00 | 0.00 | 11 | 1010.6 | |
| 20260901231105 | 73 | 0.0 | 0.0 | 0.00 | 0.00 | 0.00 | 11 | 1010.5 | |
| 20260901230053 | 73 | 0.0 | 1.0 | 0.00 | 0.00 | 0.00 | 11 | 1010.6 | |
| 20260901225041 | 73 | 0.0 | 2.0 | 0.00 | 0.00 | 0.00 | 11 | 1010.4 | |
| 20260901224030 | 73 | 0.0 | 1.0 | 0.00 | 0.00 | 0.00 | 11 | 1010.5 | |
| 20260901223016 | 73 | 0.0 | 0.0 | 0.00 | 0.00 | 0.00 | 11 | 1010.3 | |
| 20260901222001 | 73 | 0.0 | 0.0 | 0.00 | 0.00 | 0.00 | 11 | 1010.5 | |
| 20260901220948 | 73 | 0.0 | 1.0 | 0.00 | 0.00 | 0.00 | 11 | 1010.4 | |
| 20260901215936 | 73 | 0.0 | 0.0 | 0.00 | 0.00 | 0.00 | 11 | 1010.4 | |
| 20260901214925 | 73 | 0.0 | 0.0 | 0.00 | 0.00 | 0.00 | 11 | 1010.4 | |
| 20260901213913 | 73 | 0.0 | 0.0 | 0.00 | 0.00 | 0.00 | 11 | 1010.5 | |
| 20260901212856 | 73 | 0.0 | 0.0 | 0.00 | 0.00 | 0.00 | 11 | 1010.4 | |
| 20260901211135 | 73 | 0.0 | 0.0 | 0.00 | 0.00 | 0.00 | 11 | 1010.4 | |
| 20260901205618 | 75 | 0.0 | 0.0 | 0.00 | 0.00 | 0.00 | 11 | 1010.3 | |
| 20260901204202 | 75 | 0.0 | 0.0 | 0.00 | 0.00 | 0.00 | 11 | 1010.2 | |
| 20260901203151 | 75 | 0.0 | 0.0 | 0.00 | 0.00 | 0.00 | 11 | 1010.3 | |
| 20260901201121 | 75 | 0.0 | 0.0 | 0.00 | 0.00 | 0.00 | 11 | 1010.1 | |
| 20260901200109 | 75 | 0.0 | 0.0 | 0.00 | 0.00 | 0.00 | 11 | 1010.1 | |
| 20260901195057 | 77 | 0.0 | 0.0 | 0.00 | 0.00 | 0.00 | 11 | 1010.1 | |
| 20260901194046 | 77 | 0.0 | 0.0 | 0.00 | 0.00 | 0.00 | 11 | 1010.0 | |
| 20260901192930 | 77 | 0.0 | 0.0 | 0.00 | 0.00 | 0.00 | 11 | 1010.1 | |
| 20260901191701 | 77 | 0.0 | 0.0 | 0.00 | 0.00 | 0.00 | 11 | 1010.0 | |
| 20260901190343 | 78 | 0.0 | 0.0 | 0.00 | 0.00 | 0.00 | 11 | 1009.7 | |
| 20260901184623 | 78 | 0.0 | 1.0 | 0.00 | 0.00 | 0.00 | 11 | 1009.6 | |
| 20260901183612 | 78 | 0.0 | 2.0 | 0.00 | 0.00 | 0.00 | 11 | 1009.6 | |
| 20260901182601 | 78 | 1.0 | 3.0 | 0.00 | 0.00 | 0.00 | 11 | 1009.4 | |
| 20260901181549 | 78 | 0.0 | 7.0 | 0.00 | 0.00 | 0.00 | 11 | 1009.6 | |
| 20260901180537 | 78 | 3.0 | 5.0 | 0.00 | 0.00 | 0.00 | 11 | 1009.5 | |
| 20260901175525 | 80 | 2.0 | 3.0 | 0.00 | 0.00 | 0.00 | 11 | 1009.3 | |
| 20260901174510 | 80 | 4.0 | 6.0 | 0.00 | 0.00 | 0.00 | 11 | 1009.1 | |
| 20260901173500 | 80 | 0.0 | 4.0 | 0.00 | 0.00 | 0.00 | 11 | 1009.1 | |
| 20260901172446 | 80 | 0.0 | 1.0 | 0.00 | 0.00 | 0.00 | 11 | 1009.0 | |
| 20260901171434 | 82 | 1.0 | 1.0 | 0.00 | 0.00 | 0.00 | 11 | 1009.0 | |
| 20260901170422 | 82 | 0.0 | 1.0 | 0.00 | 0.00 | 0.00 | 11 | 1009.1 | |
| 20260901165408 | 82 | 0.0 | 3.0 | 0.00 | 0.00 | 0.00 | 11 | 1009.1 | |
| 20260901164357 | 82 | 2.0 | 4.0 | 0.00 | 0.00 | 0.00 | 11 | 1009.2 | |
| 20260901163346 | 82 | 3.0 | 4.0 | 0.00 | 0.00 | 0.00 | 11 | 1009.2 | |
| 20260901162334 | 82 | 0.0 | 3.0 | 0.00 | 0.00 | 0.00 | 11 | 1009.2 | |
| 20260901161322 | 82 | 2.0 | 6.0 | 0.00 | 0.00 | 0.00 | 11 | 1009.3 | |
| 20260901160310 | 82 | 1.0 | 5.0 | 0.00 | 0.00 | 0.00 | 11 | 1009.2 | |
| 20260901155259 | 82 | 1.0 | 5.0 | 0.00 | 0.00 | 0.00 | 11 | 1009.2 | |
| 20260901154248 | 84 | 1.0 | 7.0 | 0.00 | 0.00 | 0.00 | 11 | 1009.2 | |
| 20260901153132 | 84 | 4.0 | 7.0 | 0.00 | 0.00 | 0.00 | 11 | 1009.3 | |
| 20260901152120 | 86 | 3.0 | 4.0 | 0.00 | 0.00 | 0.00 | 11 | 1009.2 | |
| 20260901151108 | 86 | 5.0 | 7.0 | 0.00 | 0.00 | 0.00 | 11 | 1009.2 | |
| 20260901150056 | 84 | 6.0 | 7.0 | 0.00 | 0.00 | 0.00 | 11 | 1009.3 | |
| 20260901145044 | 86 | 5.0 | 9.0 | 0.00 | 0.00 | 0.00 | 11 | 1009.4 | |
| 20260901144032 | 86 | 5.0 | 8.0 | 0.00 | 0.00 | 0.00 | 11 | 1009.4 | |
| 20260901143015 | 86 | 4.0 | 8.0 | 0.00 | 0.00 | 0.00 | 11 | 1009.4 | |
| 20260901141951 | 86 | 3.0 | 6.0 | 0.00 | 0.00 | 0.00 | 11 | 1009.5 | |
| 20260901140939 | 86 | 4.0 | 6.0 | 0.00 | 0.00 | 0.00 | 11 | 1009.5 | |
| 20260901135926 | 86 | 4.0 | 8.0 | 0.00 | 0.00 | 0.00 | 11 | 1009.7 | |
| 20260901134915 | 86 | 5.0 | 8.0 | 0.00 | 0.00 | 0.00 | 11 | 1009.6 | |
| 20260901133903 | 86 | 3.0 | 9.0 | 0.00 | 0.00 | 0.00 | 11 | 1009.8 | |
| 20260901132851 | 84 | 6.0 | 9.0 | 0.00 | 0.00 | 0.00 | 11 | 1009.7 | |
| 20260901131839 | 89 | 2.0 | 6.0 | 0.00 | 0.00 | 0.00 | 10 | 1009.8 | |
| 20260901130828 | 87 | 4.0 | 6.0 | 0.00 | 0.00 | 0.00 | 11 | 1009.7 | |
| 20260901125816 | 87 | 4.0 | 8.0 | 0.00 | 0.00 | 0.00 | 11 | 1010.0 | |
| 20260901124804 | 86 | 2.0 | 7.0 | 0.00 | 0.00 | 0.00 | 11 | 1010.1 | |
| 20260901123752 | 89 | 2.0 | 5.0 | 0.00 | 0.00 | 0.00 | 11 | 1010.1 | |
| 20260901122740 | 86 | 2.0 | 5.0 | 0.00 | 0.00 | 0.00 | 11 | 1010.1 | |
| 20260901121729 | 89 | 0.0 | 6.0 | 0.00 | 0.00 | 0.00 | 11 | 1010.1 | |
| 20260901120714 | 84 | 2.0 | 6.0 | 0.00 | 0.00 | 0.00 | 11 | 1010.2 | |
| 20260901115659 | 84 | 6.0 | 8.0 | 0.00 | 0.00 | 0.00 | 11 | 1010.0 | |
| 20260901114648 | 84 | 3.0 | 7.0 | 0.00 | 0.00 | 0.00 | 11 | 1010.0 | |
| 20260901113636 | 86 | 1.0 | 6.0 | 0.00 | 0.00 | 0.00 | 11 | 1009.9 | |
| 20260901112621 | 89 | 4.0 | 8.0 | 0.00 | 0.00 | 0.00 | 11 | 1009.8 | |
| 20260901111610 | 91 | 2.0 | 8.0 | 0.00 | 0.00 | 0.00 | 10 | 1009.7 | |
| 20260901110559 | 91 | 4.0 | 8.0 | 0.00 | 0.00 | 0.00 | 11 | 1009.8 | |
| 20260901105546 | 91 | 3.0 | 10.0 | 0.00 | 0.00 | 0.00 | 11 | 1009.7 | |
| 20260901104532 | 91 | 2.0 | 9.0 | 0.00 | 0.00 | 0.00 | 10 | 1009.7 | |
| 20260901103520 | 89 | 6.0 | 13.0 | 0.00 | 0.00 | 0.00 | 11 | 1009.6 | |
| 20260901102508 | 91 | 2.0 | 11.0 | 0.00 | 0.00 | 0.00 | 11 | 1009.6 | |
| 20260901101457 | 89 | 7.0 | 9.0 | 0.00 | 0.00 | 0.00 | 11 | 1009.6 | |
| 20260901100445 | 89 | 4.0 | 11.0 | 0.00 | 0.00 | 0.00 | 11 | 1009.8 | |
| 20260901095431 | 87 | 5.0 | 12.0 | 0.00 | 0.00 | 0.00 | 11 | 1009.8 | |
| 20260901094420 | 87 | 6.0 | 13.0 | 0.00 | 0.00 | 0.00 | 11 | 1009.8 | |
| 20260901093405 | 87 | 5.0 | 11.0 | 0.00 | 0.00 | 0.00 | 11 | 1009.8 | |
| 20260901092353 | 89 | 5.0 | 9.0 | 0.00 | 0.00 | 0.00 | 11 | 1009.7 | |
| 20260901091342 | 89 | 1.0 | 9.0 | 0.00 | 0.00 | 0.00 | 11 | 1009.8 | |
| 20260901090330 | 89 | 1.0 | 6.0 | 0.00 | 0.00 | 0.00 | 11 | 1009.6 | |
| 20260901085318 | 87 | 1.0 | 6.0 | 0.00 | 0.00 | 0.00 | 11 | 1009.5 | |
| 20260901084307 | 91 | 0.0 | 3.0 | 0.00 | 0.00 | 0.00 | 11 | 1009.5 | |
| 20260901083256 | 84 | 0.0 | 2.0 | 0.00 | 0.00 | 0.00 | 11 | 1009.4 | |
| 20260901082245 | 84 | 1.0 | 3.0 | 0.00 | 0.00 | 0.00 | 11 | 1009.5 | |
| 20260901081233 | 82 | 2.0 | 3.0 | 0.00 | 0.00 | 0.00 | 11 | 1009.4 | |
| 20260901080221 | 86 | 0.0 | 2.0 | 0.00 | 0.00 | 0.00 | 11 | 1009.4 | |
| 20260901075209 | 84 | 0.0 | 1.0 | 0.00 | 0.00 | 0.00 | 11 | 1009.2 | |
| 20260901074157 | 86 | 0.0 | 1.0 | 0.00 | 0.00 | 0.00 | 11 | 1009.1 | |
| 20260901072335 | 82 | 0.0 | 1.0 | 0.00 | 0.00 | 0.00 | 11 | 1008.9 | |
| 20260901071324 | 82 | 0.0 | 0.0 | 0.00 | 0.00 | 0.00 | 11 | 1008.8 | |
| 20260901070312 | 82 | 0.0 | 0.0 | 0.00 | 0.00 | 0.00 | 11 | 1008.9 | |
| 20260901065054 | 80 | 0.0 | 0.0 | 0.00 | 0.00 | 0.00 | 11 | 1009.0 | |
| 20260901063939 | 80 | 0.0 | 0.0 | 0.00 | 0.00 | 0.00 | 11 | 1008.9 | |
| 20260901062620 | 78 | 0.0 | 0.0 | 0.00 | 0.00 | 0.00 | 11 | 1009.0 | |
| 20260901061608 | 75 | 0.0 | 0.0 | 0.00 | 0.00 | 0.00 | 11 | 1008.8 | |
| 20260901060556 | 73 | 0.0 | 0.0 | 0.00 | 0.00 | 0.00 | 11 | 1008.8 | |
| 20260901055543 | 73 | 0.0 | 3.0 | 0.00 | 0.00 | 0.00 | 11 | 1008.7 | |
| 20260901054532 | 73 | 0.0 | 1.0 | 0.00 | 0.00 | 0.00 | 11 | 1008.5 | |
| 20260901053521 | 73 | 1.0 | 1.0 | 0.00 | 0.00 | 0.00 | 11 | 1008.6 | |
| 20260901052510 | 73 | 0.0 | 2.0 | 0.00 | 0.00 | 0.00 | 11 | 1008.4 |